Home   Weather   Wolfenbüttel   Past weeks

Flag for Germany Past Weather in Wolfenbüttel, Lower Saxony, Germany — Yesterday and Last 2 Weeks

Now
70 °F

Scattered clouds.


Feels Like: 70 °F
Forecast: 56 / 69 °F
Wind: 3 mph from North

Location: Braunschweig Wolfsburg

Current Time: Sep 27, 2016 at 2:19:00 PM

Latest Report: Sep 27, 2016 at 1:50 PM


Visibility: N/A

Pressure: 30.30 "Hg

Humidity: 64%

Dew Point: 57 °F

Location of WolfenbüttelLocation

Past Weather in Wolfenbüttel — Graph

°F

Wolfenbüttel Temperature Yesterday

Maximum temperature yesterday: 68 °F (at 4:20 PM)
Minimum temperature yesterday: 59 °F (at 6:20 AM)
Average temperature yesterday: 64 °F

High & Low Weather Summary for the Past Weeks

 TemperatureHumidityPressure
High91 °F (Sep 12, 2:50 PM)100% (Sep 17, 8:50 AM)30.30 "Hg (Sep 17, 8:50 AM)
Low46 °F (Sep 22, 7:50 AM)24% (Sep 13, 4:20 PM)29.89 "Hg (Sep 15, 5:20 PM)
Average67 °F64%30.08 "Hg
* Reported Sep 12 12:20 PM — Sep 27 12:50 PM, Wolfenbüttel, Weather by CustomWeather, © 2016

Note: Actual official high and low records may vary slightly from our data, if they occured in-between our weather recording intervals... More about our weather records

Advertising

Wolfenbüttel Weather History for the Previous 24 Hours

Scroll right to see more
 ConditionsComfort  
Time TempWeatherWind HumidityBarometerVisibility
12:50 PM
Tue, Sep 27
64 °FPartly sunny.3 mph78%30.30 "HgN/A
12:20 PM64 °FScattered clouds.2 mph73%30.30 "HgN/A
11:50 AM64 °FBroken clouds.1 mph73%30.30 "HgN/A
10:50 AM61 °FOvercast.No wind83%30.30 "HgN/A
10:20 AM59 °FBroken clouds.2 mph88%30.30 "HgN/A
9:50 AM59 °FPartly sunny.2 mph88%30.30 "HgN/A
9:20 AM57 °FSunny.No wind88%30.30 "Hg10 mi
8:50 AM55 °FLow clouds.6 mph94%30.30 "HgN/A
8:20 AM54 °FSunny.1 mph94%30.27 "Hg10 mi
7:50 AM54 °FSunny.2 mph94%30.27 "Hg10 mi
7:20 AM55 °FPassing clouds.3 mph94%30.27 "HgN/A
6:50 AM55 °FPassing clouds.5 mph94%30.27 "HgN/A
9:50 PM
Mon, Sep 26
63 °FPassing clouds.2 mph73%30.21 "HgN/A
9:20 PM63 °FPassing clouds.3 mph73%30.21 "HgN/A
8:50 PM63 °FPassing clouds.3 mph73%30.21 "HgN/A
8:20 PM64 °FPassing clouds.2 mph73%30.21 "HgN/A
7:50 PM64 °FPassing clouds.No wind73%30.21 "HgN/A
7:20 PM64 °FPartly cloudy.No wind73%30.21 "HgN/A
6:50 PM64 °FPartly sunny.No wind73%30.21 "HgN/A
6:20 PM66 °FPartly sunny.2 mph68%30.21 "HgN/A
5:50 PM66 °FPartly sunny.2 mph68%30.21 "HgN/A
5:20 PM68 °FScattered clouds.3 mph64%30.18 "HgN/A
4:50 PM68 °FScattered clouds.5 mph60%30.18 "HgN/A
4:20 PM68 °FScattered clouds.6 mph60%30.18 "HgN/A
3:50 PM66 °FScattered clouds.6 mph64%30.18 "HgN/A
3:20 PM66 °FPartly sunny.6 mph68%30.18 "HgN/A
2:50 PM66 °FPartly sunny.7 mph68%30.18 "HgN/A
2:20 PM66 °FPartly sunny.7 mph68%30.18 "HgN/A
Weather by CustomWeather, © 2016

See weather overviewHow to use our weather pages